QPF
0.02 0.01 0.01 0.02 0.03 0.03 0.04 0.06 0.07 0.05 0.03 0.03 0.02 0.02 0.02 0.03 0.04 0.03 0.03 0.04 0.04 0.03 0.03 0.03 0.04 0.04 0.05 0.07 0.09 0.13 0.15 0.18 0.17 0.14 0.13 0.12 0.10 0.10
0.02 0.02 0.02 0.01 0.01 0.02 0.03 0.04 0.06 0.06 0.05 0.04 0.03 0.02 0.02 0.02 0.03 0.03 0.03 0.03 0.03 0.03 0.02 0.03 0.04 0.04 0.05 0.08 0.11 0.11 0.12 0.13 0.13 0.11 0.10 0.08 0.07 0.07
0.02 0.02 0.02 0.02 0.01 0.01 0.02 0.03 0.06 0.07 0.06 0.04 0.04 0.04 0.02 0.02 0.03 0.02 0.02 0.03 0.03 0.03 0.03 0.03 0.04 0.06 0.05 0.05 0.06 0.06 0.06 0.07 0.07 0.08 0.06 0.06 0.06 0.07
0.01 0.01 0.01 0.02 0.01 0.02 0.02 0.02 0.03 0.05 0.05 0.04 0.04 0.05 0.03 0.01 0.02 0.03 0.02 0.03 0.03 0.04 0.02 0.02 0.02 0.02 0.03 0.03 0.03 0.04 0.04 0.04 0.04 0.04 0.04 0.04 0.05 0.06
0.00 0.01 0.01 0.01 0.01 0.02 0.02 0.02 0.03 0.03 0.03 0.03 0.03 0.05 0.05 0.03 0.03 0.03 0.03 0.03 0.03 0.03 0.03 0.02 0.02 0.02 0.03 0.02 0.02 0.02 0.02 0.02 0.02 0.02 0.02 0.03 0.05 0.06
0.02 0.02 0.02 0.01 0.02 0.02 0.02 0.02 0.03 0.03 0.03 0.02 0.03 0.04 0.04 0.04 0.04 0.04 0.03 0.03 0.03 0.03 0.04 0.04 0.04 0.03 0.03 0.03 0.02 0.02 0.01 0.02 0.01 0.01 0.01 0.02 0.03 0.06
0.02 0.03 0.02 0.02 0.02 0.02 0.02 0.02 0.03 0.03 0.03 0.03 0.03 0.04 0.04 0.04 0.04 0.03 0.03 0.04 0.04 0.04 0.04 0.05 0.05 0.04 0.04 0.03 0.03 0.03 0.02 0.01 0.01 0.01 0.01 0.01 0.02 0.06
0.02 0.03 0.03 0.04 0.04 0.03 0.02 0.03 0.03 0.04 0.03 0.03 0.03 0.03 0.04 0.05 0.04 0.03 0.03 0.04 0.05 0.05 0.04 0.06 0.05 0.04 0.04 0.03 0.03 0.02 0.01 0.01 0.00 0.00 0.00 0.00 0.01 0.02
0.01 0.02 0.02 0.02 0.03 0.03 0.03 0.03 0.03 0.04 0.04 0.04 0.03 0.02 0.03 0.03 0.04 0.02 0.02 0.04 0.04 0.04 0.05 0.07 0.06 0.04 0.04 0.03 0.02 0.01 0.01 0.01 0.00 0.01 0.01 0.00 0.00 0.00
0.00 0.01 0.02 0.02 0.02 0.03 0.03 0.03 0.03 0.04 0.05 0.05 0.03 0.03 0.03 0.04 0.05 0.04 0.03 0.03 0.03 0.04 0.04 0.05 0.06 0.04 0.03 0.02 0.02 0.01 0.01 0.01 0.00 0.00 0.01 0.01 0.00 0.00
0.00 0.01 0.02 0.01 0.02 0.02 0.02 0.03 0.03 0.04 0.05 0.05 0.04 0.05 0.05 0.06 0.05 0.05 0.04 0.03 0.03 0.03 0.03 0.04 0.05 0.04 0.02 0.01 0.01 0.01 0.00 0.00 0.00 0.00 0.01 0.00 0.00 0.00
0.00 0.01 0.02 0.02 0.03 0.03 0.02 0.02 0.03 0.04 0.03 0.02 0.04 0.06 0.04 0.03 0.03 0.02 0.02 0.02 0.01 0.02 0.02 0.03 0.04 0.03 0.01 0.00 0.00 0.00 0.00 0.00 0.00 0.00 0.00 0.00 0.00 0.00
0.00 0.01 0.01 0.02 0.03 0.03 0.03 0.03 0.04 0.04 0.03 0.03 0.04 0.05 0.03 0.02 0.01 0.01 0.01 0.01 0.01 0.01 0.01 0.02 0.02 0.01 0.00 0.00 0.01 0.00 0.00 0.00 0.00 0.00 0.00 0.00 0.00 0.00
0.01 0.01 0.01 0.02 0.03 0.03 0.02 0.03 0.03 0.03 0.02 0.03 0.03 0.03 0.03 0.01 0.01 0.01 0.01 0.01 0.01 0.02 0.01 0.01 0.01 0.00 0.00 0.00 0.01 0.01 0.00 0.00 0.00 0.01 0.00 0.00 0.00 0.00
0.01 0.01 0.02 0.02 0.02 0.02 0.02 0.02 0.02 0.02 0.03 0.03 0.02 0.02 0.02 0.01 0.01 0.01 0.01 0.01 0.02 0.02 0.01 0.01 0.01 0.00 0.00 0.01 0.01 0.00 0.00 0.00 0.00 0.00 0.01 0.00 0.00 0.00
0.02 0.02 0.02 0.02 0.02 0.02 0.02 0.02 0.02 0.03 0.03 0.02 0.01 0.01 0.00 0.00 0.00 0.00 0.00 0.01 0.02 0.01 0.01 0.01 0.01 0.00 0.00 0.01 0.01 0.00 0.00 0.00 0.00 0.00 0.00 0.00 0.00 0.00
0.01 0.01 0.01 0.01 0.01 0.01 0.02 0.02 0.03 0.03 0.02 0.01 0.01 0.00 0.00 0.00 0.00 0.00 0.00 0.00 0.01 0.01 0.01 0.00 0.01 0.01 0.01 0.02 0.01 0.01 0.00 0.00 0.00 0.00 0.00 0.00 0.00 0.00
0.01 0.00 0.01 0.01 0.00 0.01 0.01 0.01 0.01 0.01 0.00 0.00 0.00 0.00 0.00 0.00 0.00 0.00 0.00 0.00 0.01 0.01 0.01 0.00 0.01 0.01 0.01 0.01 0.01 0.01 0.01 0.00 0.00 0.00 0.00 0.00 0.00 0.00
0.01 0.00 0.00 0.00 0.00 0.00 0.00 0.00 0.00 0.00 0.00 0.00 0.00 0.00 0.00 0.00 0.00 0.00 0.00 0.01 0.01 0.01 0.01 0.01 0.01 0.01 0.01 0.01 0.01 0.01 0.01 0.00 0.00 0.00 0.00 0.00 0.00 0.00
0.00 0.00 0.00 0.00 0.00 0.00 0.00 0.00 0.00 0.00 0.00 0.00 0.01 0.01 0.01 0.01 0.01 0.01 0.01 0.01 0.01 0.01 0.01 0.01 0.01 0.01 0.01 0.01 0.01 0.00 0.00 0.00 0.00 0.00 0.00 0.00 0.00 0.00
0.00 0.00 0.00 0.00 0.00 0.00 0.00 0.00 0.00 0.00 0.00 0.00 0.00 0.00 0.00 0.01 0.01 0.01 0.01 0.00 0.00 0.01 0.01 0.01 0.00 0.00 0.00 0.00 0.00 0.00 0.00 0.00 0.00 0.00 0.00 0.00 0.00 0.00
0.00 0.00 0.00 0.00 0.00 0.00 0.00 0.00 0.00 0.00 0.00 0.00 0.00 0.00 0.00 0.00 0.00 0.00 0.00 0.00 0.01 0.01 0.00 0.00 0.00 0.00 0.00 0.00 0.00 0.00 0.00 0.00 0.00 0.00 0.00 0.00 0.00 0.00
0.00 0.00 0.00 0.00 0.00 0.00 0.00 0.00 0.00 0.00 0.00 0.00 0.00 0.00 0.00 0.00 0.00 0.00 0.00 0.00 0.00 0.00 0.00 0.00 0.00 0.00 0.00 0.00 0.00 0.00 0.00 0.00 0.00 0.00 0.00 0.00 0.00 0.00
MSLP
1017.29 1016.85 1016.42 1016.01 1015.66 1015.40 1015.25 1015.23 1015.35 1015.61 1015.97 1016.40 1016.85 1017.27 1017.62 1017.87 1018.01 1018.05 1018.02 1017.95 1017.88 1017.84 1017.87 1017.96 1018.11 1018.31 1018.54 1018.79 1019.05 1019.31 1019.58 1019.88 1020.22 1020.60 1021.04 1021.52 1022.03 1022.55
1017.00 1016.57 1016.12 1015.69 1015.30 1015.01 1014.83 1014.80 1014.92 1015.20 1015.60 1016.10 1016.63 1017.14 1017.59 1017.94 1018.18 1018.30 1018.35 1018.35 1018.33 1018.35 1018.41 1018.54 1018.73 1018.97 1019.24 1019.52 1019.79 1020.06 1020.31 1020.58 1020.85 1021.16 1021.50 1021.88 1022.28 1022.70
1016.60 1016.17 1015.72 1015.28 1014.87 1014.54 1014.33 1014.28 1014.39 1014.68 1015.11 1015.66 1016.27 1016.87 1017.43 1017.89 1018.24 1018.48 1018.62 1018.70 1018.76 1018.83 1018.94 1019.11 1019.32 1019.58 1019.87 1020.15 1020.43 1020.68 1020.92 1021.14 1021.36 1021.60 1021.86 1022.14 1022.45 1022.77
1016.15 1015.74 1015.29 1014.84 1014.42 1014.06 1013.83 1013.75 1013.85 1014.13 1014.58 1015.17 1015.84 1016.52 1017.18 1017.75 1018.21 1018.56 1018.81 1018.98 1019.12 1019.24 1019.39 1019.58 1019.81 1020.07 1020.35 1020.63 1020.90 1021.13 1021.34 1021.53 1021.70 1021.89 1022.08 1022.30 1022.53 1022.78
1015.73 1015.32 1014.88 1014.43 1014.00 1013.64 1013.38 1013.28 1013.35 1013.62 1014.08 1014.68 1015.39 1016.13 1016.86 1017.53 1018.10 1018.55 1018.90 1019.15 1019.35 1019.53 1019.71 1019.91 1020.13 1020.38 1020.64 1020.90 1021.14 1021.36 1021.54 1021.71 1021.86 1022.01 1022.16 1022.33 1022.52 1022.72
1015.37 1014.97 1014.54 1014.10 1013.67 1013.30 1013.03 1012.91 1012.97 1013.22 1013.66 1014.26 1014.98 1015.76 1016.54 1017.27 1017.92 1018.45 1018.88 1019.21 1019.46 1019.67 1019.86 1020.06 1020.27 1020.49 1020.72 1020.95 1021.16 1021.35 1021.53 1021.68 1021.82 1021.95 1022.09 1022.24 1022.39 1022.55
1015.13 1014.73 1014.31 1013.87 1013.45 1013.09 1012.81 1012.68 1012.72 1012.94 1013.36 1013.94 1014.65 1015.44 1016.24 1017.01 1017.70 1018.29 1018.77 1019.15 1019.43 1019.66 1019.86 1020.04 1020.22 1020.41 1020.60 1020.79 1020.97 1021.14 1021.30 1021.45 1021.59 1021.72 1021.86 1021.99 1022.13 1022.25
1015.01 1014.61 1014.18 1013.76 1013.36 1013.00 1012.74 1012.61 1012.63 1012.84 1013.22 1013.78 1014.46 1015.22 1016.02 1016.78 1017.49 1018.10 1018.61 1019.01 1019.31 1019.54 1019.73 1019.88 1020.03 1020.17 1020.32 1020.47 1020.62 1020.77 1020.92 1021.06 1021.20 1021.33 1021.46 1021.59 1021.70 1021.79
1015.02 1014.60 1014.18 1013.77 1013.39 1013.06 1012.81 1012.69 1012.71 1012.90 1013.26 1013.77 1014.41 1015.14 1015.89 1016.64 1017.32 1017.93 1018.43 1018.83 1019.13 1019.35 1019.51 1019.64 1019.75 1019.85 1019.95 1020.06 1020.18 1020.30 1020.43 1020.55 1020.68 1020.81 1020.92 1021.02 1021.10 1021.14
1015.15 1014.71 1014.29 1013.90 1013.54 1013.24 1013.03 1012.93 1012.96 1013.14 1013.47 1013.94 1014.53 1015.20 1015.90 1016.59 1017.24 1017.81 1018.28 1018.66 1018.94 1019.14 1019.28 1019.38 1019.45 1019.51 1019.57 1019.63 1019.71 1019.79 1019.89 1019.98 1020.08 1020.18 1020.26 1020.32 1020.35 1020.34
1015.37 1014.92 1014.51 1014.14 1013.81 1013.56 1013.38 1013.31 1013.36 1013.54 1013.85 1014.28 1014.81 1015.41 1016.04 1016.66 1017.25 1017.76 1018.19 1018.53 1018.78 1018.96 1019.07 1019.14 1019.18 1019.20 1019.22 1019.24 1019.27 1019.30 1019.35 1019.40 1019.44 1019.49 1019.51 1019.52 1019.49 1019.41
1015.68 1015.23 1014.83 1014.49 1014.20 1013.98 1013.85 1013.81 1013.88 1014.06 1014.36 1014.75 1015.22 1015.75 1016.30 1016.84 1017.34 1017.79 1018.17 1018.46 1018.67 1018.82 1018.91 1018.95 1018.96 1018.95 1018.93 1018.90 1018.88 1018.86 1018.84 1018.83 1018.81 1018.78 1018.74 1018.67 1018.57 1018.43
1016.05 1015.62 1015.24 1014.92 1014.67 1014.50 1014.41 1014.41 1014.50 1014.68 1014.95 1015.30 1015.71 1016.17 1016.63 1017.08 1017.50 1017.87 1018.18 1018.42 1018.60 1018.71 1018.78 1018.80 1018.79 1018.75 1018.70 1018.63 1018.56 1018.47 1018.39 1018.29 1018.19 1018.09 1017.96 1017.82 1017.66 1017.47
1016.46 1016.05 1015.70 1015.42 1015.21 1015.07 1015.02 1015.04 1015.15 1015.33 1015.58 1015.89 1016.24 1016.61 1016.98 1017.34 1017.68 1017.97 1018.21 1018.39 1018.53 1018.61 1018.66 1018.66 1018.64 1018.58 1018.50 1018.39 1018.27 1018.12 1017.96 1017.79 1017.61 1017.42 1017.23 1017.02 1016.81 1016.58
1016.86 1016.49 1016.17 1015.93 1015.75 1015.65 1015.62 1015.66 1015.78 1015.95 1016.17 1016.43 1016.72 1017.01 1017.30 1017.57 1017.82 1018.02 1018.19 1018.33 1018.42 1018.48 1018.51 1018.50 1018.46 1018.39 1018.29 1018.15 1017.98 1017.78 1017.56 1017.31 1017.06 1016.80 1016.54 1016.29 1016.04 1015.80
1017.21 1016.88 1016.61 1016.39 1016.24 1016.16 1016.15 1016.21 1016.32 1016.47 1016.67 1016.88 1017.10 1017.32 1017.53 1017.72 1017.88 1018.01 1018.11 1018.19 1018.25 1018.28 1018.29 1018.27 1018.23 1018.15 1018.03 1017.87 1017.66 1017.41 1017.14 1016.84 1016.52 1016.21 1015.91 1015.63 1015.37 1015.14
1017.47 1017.18 1016.94 1016.75 1016.62 1016.56 1016.56 1016.61 1016.71 1016.85 1017.01 1017.18 1017.35 1017.50 1017.63 1017.74 1017.83 1017.89 1017.93 1017.96 1017.98 1017.99 1017.99 1017.96 1017.91 1017.83 1017.69 1017.51 1017.28 1017.00 1016.69 1016.35 1015.99 1015.65 1015.32 1015.03 1014.78 1014.57
1017.59 1017.35 1017.14 1016.97 1016.85 1016.79 1016.79 1016.83 1016.92 1017.04 1017.17 1017.30 1017.42 1017.52 1017.59 1017.64 1017.66 1017.67 1017.66 1017.65 1017.64 1017.63 1017.61 1017.58 1017.52 1017.43 1017.29 1017.10 1016.85 1016.55 1016.20 1015.84 1015.46 1015.10 1014.77 1014.48 1014.25 1014.08
1017.57 1017.36 1017.16 1017.01 1016.90 1016.84 1016.83 1016.86 1016.94 1017.03 1017.14 1017.24 1017.33 1017.39 1017.42 1017.42 1017.40 1017.36 1017.32 1017.27 1017.24 1017.21 1017.17 1017.13 1017.07 1016.97 1016.83 1016.63 1016.37 1016.05 1015.69 1015.31 1014.93 1014.56 1014.23 1013.96 1013.75 1013.61
1017.42 1017.22 1017.03 1016.88 1016.77 1016.70 1016.68 1016.71 1016.77 1016.85 1016.94 1017.03 1017.09 1017.13 1017.13 1017.11 1017.06 1016.99 1016.92 1016.86 1016.80 1016.76 1016.72 1016.67 1016.60 1016.50 1016.34 1016.13 1015.86 1015.53 1015.17 1014.77 1014.38 1014.02 1013.69 1013.44 1013.25 1013.14
1017.14 1016.94 1016.76 1016.60 1016.48 1016.40 1016.37 1016.39 1016.44 1016.52 1016.60 1016.68 1016.74 1016.76 1016.75 1016.72 1016.65 1016.58 1016.50 1016.42 1016.36 1016.30 1016.25 1016.20 1016.12 1016.01 1015.85 1015.62 1015.34 1015.00 1014.63 1014.23 1013.83 1013.46 1013.15 1012.90 1012.73 1012.63
1016.77 1016.57 1016.38 1016.20 1016.07 1015.98 1015.94 1015.94 1015.99 1016.06 1016.14 1016.22 1016.27 1016.30 1016.30 1016.26 1016.20 1016.12 1016.04 1015.96 1015.90 1015.84 1015.79 1015.72 1015.64 1015.52 1015.34 1015.11 1014.81 1014.46 1014.07 1013.66 1013.26 1012.89 1012.58 1012.33 1012.17 1012.09
1016.34 1016.11 1015.90 1015.71 1015.55 1015.45 1015.40 1015.39 1015.43 1015.50 1015.58 1015.66 1015.72 1015.76 1015.76 1015.73 1015.68 1015.61 1015.54 1015.47 1015.40 1015.35 1015.29 1015.22 1015.13 1014.99 1014.81 1014.56 1014.25 1013.89 1013.48 1013.07 1012.66 1012.29 1011.97 1011.73 1011.57 1011.49
Thickness
5590 5590 5591 5592 5592 5594 5594 5595 5595 5596 5598 5599 5601 5603 5606 5609 5612 5615 5618 5620 5622 5623 5625 5626 5627 5627 5628 5629 5630 5630 5630 5630 5628 5627 5626 5624 5623 5621
5583 5584 5584 5585 5586 5587 5588 5589 5590 5590 5591 5593 5594 5595 5598 5601 5604 5607 5609 5611 5613 5615 5617 5618 5619 5620 5621 5622 5623 5623 5622 5622 5621 5620 5619 5617 5615 5614
5577 5578 5578 5579 5580 5581 5582 5583 5584 5584 5585 5586 5587 5589 5591 5594 5597 5599 5601 5604 5606 5608 5609 5611 5612 5613 5614 5615 5615 5615 5615 5615 5614 5614 5612 5611 5610 5608
5571 5572 5573 5574 5574 5575 5576 5578 5578 5579 5580 5581 5581 5583 5585 5587 5590 5593 5595 5598 5599 5601 5603 5604 5605 5606 5607 5608 5608 5608 5608 5608 5608 5607 5607 5605 5604 5602
5565 5567 5568 5569 5570 5571 5572 5573 5574 5575 5576 5576 5576 5577 5579 5581 5584 5587 5590 5591 5594 5596 5597 5598 5599 5600 5601 5602 5602 5602 5602 5602 5602 5602 5601 5599 5598 5596
5561 5562 5563 5564 5566 5567 5568 5569 5570 5571 5571 5572 5572 5573 5574 5576 5579 5581 5584 5586 5588 5591 5592 5593 5594 5594 5596 5596 5596 5596 5596 5596 5596 5596 5595 5594 5593 5591
5558 5559 5560 5561 5562 5563 5564 5565 5566 5567 5567 5568 5568 5569 5571 5573 5575 5577 5579 5581 5583 5585 5587 5588 5589 5590 5590 5591 5591 5591 5592 5592 5592 5591 5590 5589 5588 5586
5554 5555 5557 5558 5559 5559 5561 5562 5563 5564 5565 5566 5566 5567 5568 5570 5571 5573 5575 5577 5579 5580 5581 5583 5584 5585 5585 5586 5587 5588 5588 5588 5588 5587 5585 5584 5583 5581
5550 5551 5553 5554 5555 5556 5558 5559 5561 5562 5563 5564 5565 5566 5568 5569 5570 5571 5572 5573 5575 5576 5576 5579 5579 5580 5581 5582 5583 5584 5584 5584 5583 5582 5581 5580 5579 5577
5548 5549 5550 5551 5553 5553 5555 5558 5559 5560 5561 5562 5564 5565 5566 5567 5568 5569 5569 5569 5571 5572 5572 5574 5576 5576 5578 5579 5580 5581 5581 5580 5580 5579 5578 5577 5576 5574
5547 5548 5549 5550 5551 5552 5554 5556 5557 5558 5560 5561 5562 5564 5565 5566 5566 5566 5567 5568 5569 5571 5569 5571 5572 5573 5575 5576 5577 5578 5578 5578 5577 5577 5576 5575 5573 5571
5548 5548 5549 5549 5551 5552 5553 5555 5556 5557 5559 5560 5562 5563 5564 5564 5565 5565 5566 5566 5567 5568 5568 5568 5569 5570 5572 5574 5575 5575 5575 5575 5575 5575 5574 5573 5571 5568
5548 5549 5550 5551 5552 5553 5554 5555 5556 5557 5558 5559 5561 5562 5563 5564 5564 5565 5564 5565 5565 5566 5567 5566 5567 5567 5568 5570 5572 5573 5573 5573 5573 5573 5573 5571 5569 5567
5549 5550 5552 5553 5554 5555 5556 5557 5558 5558 5558 5560 5561 5562 5563 5564 5564 5564 5564 5564 5564 5565 5565 5564 5565 5565 5566 5568 5570 5572 5573 5572 5571 5571 5571 5570 5568 5566
5551 5553 5554 5555 5557 5558 5559 5559 5560 5560 5560 5560 5561 5562 5562 5562 5563 5564 5565 5565 5565 5566 5566 5565 5565 5565 5564 5566 5568 5569 5570 5571 5570 5569 5568 5567 5565 5563
5554 5555 5556 5557 5559 5559 5560 5560 5561 5561 5561 5561 5561 5562 5562 5563 5563 5564 5564 5565 5566 5568 5568 5567 5566 5565 5566 5566 5566 5567 5567 5567 5568 5566 5565 5564 5562 5560
5556 5557 5559 5560 5561 5562 5562 5562 5562 5562 5562 5562 5562 5563 5563 5564 5564 5564 5564 5564 5565 5567 5568 5568 5567 5566 5565 5565 5566 5566 5566 5565 5565 5563 5561 5561 5561 5558
5557 5559 5560 5561 5562 5563 5564 5564 5565 5565 5565 5564 5565 5565 5565 5565 5566 5565 5564 5564 5565 5566 5567 5567 5566 5566 5566 5566 5563 5564 5564 5563 5562 5560 5557 5556 5558 5557
5560 5562 5562 5563 5564 5565 5565 5565 5566 5567 5566 5566 5566 5566 5566 5566 5566 5566 5566 5565 5566 5566 5566 5565 5564 5564 5565 5566 5568 5562 5560 5560 5558 5557 5555 5553 5553 5554
5564 5564 5566 5566 5567 5567 5568 5568 5568 5568 5568 5568 5567 5567 5567 5567 5567 5567 5566 5566 5566 5566 5566 5566 5564 5562 5561 5562 5562 5561 5558 5555 5554 5553 5553 5551 5549 5548
5569 5569 5569 5569 5570 5570 5570 5570 5570 5570 5570 5570 5569 5568 5568 5567 5567 5568 5567 5565 5564 5565 5565 5566 5564 5561 5558 5556 5557 5559 5558 5554 5551 5548 5548 5546 5546 5545
5572 5573 5574 5574 5574 5574 5573 5573 5572 5572 5572 5572 5571 5570 5569 5568 5568 5568 5567 5566 5566 5565 5564 5564 5562 5559 5557 5556 5556 5556 5555 5553 5550 5546 5543 5540 5538 5539
5577 5577 5578 5578 5578 5577 5577 5576 5576 5576 5575 5574 5573 5573 5572 5570 5569 5568 5567 5566 5565 5564 5563 5562 5560 5558 5556 5554 5553 5552 5550 5549 5547 5545 5543 5540 5535 5533